Weather in Nemino-3

Russia / Republic of Karelia     62°36′58″N   35°48′14″E
temp.,
°C
wind,
m/s
gust,
m/s
humid.,
%
clouds,
%
prec.,
mm/h
press.,
hPa
HPBL,
m
21 january, fri
fri2100:00−1s51198100 2.4 989581
03:00−1s51197100 3.9 990524
06:00−2s4997100 1.0 991385
09:00−2ssw3897100 1.8 994342
12:00−3s3692100 0.3 997177
15:00−5ssw1293100 0.3 100026
18:00−10sse1198100 0.0 100310
21:00−14ene11100100 0.0 10069
22 january, sat
sat2200:00−13ne1110099 0.0 100812
03:00−6ene249699 0.1 1009227
06:00−5nne2595100 0.1 1011160
09:00−6ene239694 0.1 101367
12:00−6ene259484 0.1 1015312
15:00−8ene239574 0.1 101741
18:00−14e229882 0.0 101916
21:00−17e229835 0.0 102115
23 january, sun
sun2300:00−19e1110046 0.0 102210
03:00−21ese1110060 0.0 10249
06:00−21se2210075 0.0 102432
09:00−21se22100100 0.0 102533
12:00−16s2610099 0.0 1026120
15:00−13ssw379680 0.1 1026206
18:00−11s41094100 0.0 1027269
21:00−10ssw4119399 0.0 1026278
24 january, mon
mon2400:00−9ssw51194100 0.3 1027345
03:00−8ssw51294100 0.6 1026408
06:00−7ssw61294100 0.6 1025437
09:00−6s61294100 0.9 1025429
12:00−6s61394100 0.2 1023450
15:00−5s71593100 0.3 1021556
18:00−4s91891100 0.1 1019633
21:00−4s91890100 0.1 1016767
25 january, tue
tue2500:00−5ssw91891100 0.3 1013754
03:00−5ssw91793100 0.8 1011777
06:00−5ssw71594100 1.1 1009680
09:00−5s61194100 1.9 1009472
12:00−4s4894100 0.3 1009425
15:00−5sse3795100 0.6 1009347
18:00−6ese2597100 0.3 1009129
21:00−7ene2396100 0.5 101067